ARG1840 SABE-SAWC

Flight info

Callsign ARG1840
Flight time 2h 42m
Altitude 36000
Route PTA8 GBE UT694 IREMO UP664 CRV UW48 BOKUK BOKUK2U
Aircraft B38M/M-MSDFGHILORVW/SB1

Departure

Time 2026-04-15 13:45
Airport Aeroparque Jorge Newbery (SABE)

Arrival

Time 2026-04-15 16:27
Airport El Calafate - Commander Armando Tola International Airport (SAWC)
Time Latitude Longitude Altitude Speed Heading
2026-04-15 12:59 -34.55999 -58.40972 28 ft 0 kts 38°
2026-04-15 13:32 -34.56009 -58.40981 28 ft 4 kts 35°
2026-04-15 13:32 -34.56032 -58.40997 28 ft 4 kts 14°
2026-04-15 13:33 -34.56053 -58.40995 28 ft 4 kts 313°
2026-04-15 13:33 -34.56069 -58.40972 28 ft 3 kts 308°
2026-04-15 13:33 -34.56072 -58.40967 28 ft 0 kts 308°
2026-04-15 13:37 -34.56071 -58.40968 28 ft 0 kts 308°
2026-04-15 13:37 -34.56064 -58.40979 28 ft 3 kts 308°
2026-04-15 13:37 -34.56044 -58.41011 28 ft 6 kts 308°
2026-04-15 13:38 -34.56043 -58.41061 28 ft 6 kts 243°
2026-04-15 13:38 -34.56037 -58.41121 28 ft 10 kts 300°
2026-04-15 13:38 -34.55985 -58.41203 28 ft 15 kts 307°
2026-04-15 13:38 -34.55916 -58.41322 28 ft 18 kts 298°
2026-04-15 13:39 -34.55860 -58.41457 28 ft 18 kts 297°
2026-04-15 13:39 -34.55804 -58.41590 28 ft 18 kts 297°
2026-04-15 13:39 -34.55749 -58.41722 28 ft 17 kts 297°
2026-04-15 13:39 -34.55687 -58.41845 28 ft 17 kts 304°
2026-04-15 13:40 -34.55621 -58.41962 28 ft 17 kts 304°
2026-04-15 13:40 -34.55555 -58.42077 28 ft 16 kts 307°
2026-04-15 13:40 -34.55486 -58.42188 28 ft 16 kts 307°
2026-04-15 13:40 -34.55419 -58.42296 28 ft 15 kts 307°
2026-04-15 13:41 -34.55385 -58.42350 28 ft 0 kts 307°
2026-04-15 13:42 -34.55384 -58.42352 28 ft 1 kts 307°
2026-04-15 13:42 -34.55376 -58.42369 28 ft 5 kts 295°
2026-04-15 13:42 -34.55362 -58.42439 28 ft 13 kts 280°
2026-04-15 13:43 -34.55381 -58.42499 28 ft 6 kts 208°
2026-04-15 13:43 -34.55412 -58.42493 28 ft 3 kts 139°
2026-04-15 13:43 -34.55420 -58.42482 28 ft 0 kts 125°
2026-04-15 13:44 -34.55457 -58.42416 29 ft 39 kts 123°
2026-04-15 13:44 -34.55749 -58.41893 27 ft 109 kts 124°
2026-04-15 13:44 -34.56238 -58.41017 88 ft 152 kts 124°
2026-04-15 13:44 -34.56878 -58.39900 616 ft 169 kts 122°
2026-04-15 13:45 -34.57465 -58.38772 1650 ft 152 kts 116°
2026-04-15 13:45 -34.57873 -58.37528 2214 ft 168 kts 96°
2026-04-15 13:45 -34.57667 -58.36062 2622 ft 193 kts 62°
2026-04-15 13:47 -34.65818 -58.32294 7979 ft 294 kts 185°
2026-04-15 13:47 -34.67854 -58.32617 8899 ft 297 kts 184°
2026-04-15 13:47 -34.69919 -58.32916 9795 ft 301 kts 184°
2026-04-15 13:48 -34.72021 -58.33202 10534 ft 311 kts 184°
2026-04-15 13:48 -34.74240 -58.33472 10944 ft 330 kts 183°
2026-04-15 13:48 -34.76573 -58.33736 11297 ft 350 kts 183°
2026-04-15 13:48 -34.79072 -58.34015 11585 ft 370 kts 184°
2026-04-15 13:49 -34.81707 -58.34307 11883 ft 388 kts 184°
2026-04-15 13:49 -34.84443 -58.34618 12335 ft 399 kts 184°
2026-04-15 13:49 -34.87211 -58.34952 13071 ft 401 kts 185°
2026-04-15 13:49 -34.90005 -58.35303 13719 ft 406 kts 185°
2026-04-15 13:50 -34.92828 -58.35665 14192 ft 411 kts 185°
2026-04-15 13:50 -34.95682 -58.36026 14694 ft 413 kts 185°
2026-04-15 13:50 -34.98543 -58.36400 15279 ft 414 kts 185°
2026-04-15 13:50 -35.01413 -58.36773 15947 ft 416 kts 185°
2026-04-15 13:51 -35.04307 -58.37148 16515 ft 420 kts 185°
2026-04-15 13:51 -35.07219 -58.37527 17103 ft 423 kts 185°
2026-04-15 13:51 -35.10158 -58.37910 17637 ft 426 kts 185°
2026-04-15 13:51 -35.13122 -58.38295 18183 ft 429 kts 185°
2026-04-15 13:52 -35.16104 -58.38686 18637 ft 433 kts 186°
2026-04-15 13:52 -35.19125 -58.39077 19078 ft 436 kts 186°
2026-04-15 13:52 -35.21160 -58.39346 19382 ft 438 kts 186°
2026-04-15 13:52 -35.24215 -58.39752 19660 ft 446 kts 186°
2026-04-15 13:53 -35.27293 -58.40147 20189 ft 446 kts 187°
2026-04-15 13:53 -35.30371 -58.40555 20585 ft 450 kts 187°
2026-04-15 13:53 -35.33496 -58.40965 21008 ft 453 kts 187°
2026-04-15 13:53 -35.36634 -58.41379 21436 ft 455 kts 187°
2026-04-15 13:54 -35.39800 -58.41795 21841 ft 458 kts 187°
2026-04-15 13:54 -35.42983 -58.42215 22235 ft 461 kts 187°
2026-04-15 13:54 -35.46184 -58.42637 22616 ft 465 kts 187°
2026-04-15 13:54 -35.49414 -58.43064 22993 ft 468 kts 187°
2026-04-15 13:55 -35.52669 -58.43495 23368 ft 471 kts 187°
2026-04-15 13:55 -35.55940 -58.43928 23710 ft 474 kts 187°
2026-04-15 13:55 -35.59230 -58.44364 24003 ft 477 kts 188°
2026-04-15 13:55 -35.62538 -58.44803 24343 ft 478 kts 188°
2026-04-15 13:56 -35.65853 -58.45244 24659 ft 481 kts 188°
2026-04-15 13:56 -35.69196 -58.45688 24957 ft 484 kts 188°
2026-04-15 13:56 -35.72544 -58.46187 25243 ft 485 kts 193°
2026-04-15 13:56 -35.75816 -58.47198 25533 ft 485 kts 199°
2026-04-15 13:57 -35.78948 -58.48592 25797 ft 486 kts 206°
2026-04-15 13:57 -35.81977 -58.50437 26039 ft 485 kts 217°
2026-04-15 13:57 -35.84609 -58.53068 26351 ft 481 kts 226°
2026-04-15 13:57 -35.87155 -58.55701 26568 ft 490 kts 217°
2026-04-15 13:58 -35.90046 -58.57929 26922 ft 491 kts 216°
2026-04-15 13:58 -35.92950 -58.60194 27161 ft 495 kts 216°
2026-04-15 13:58 -35.95871 -58.62455 27456 ft 497 kts 216°
2026-04-15 13:58 -35.98812 -58.64727 27731 ft 500 kts 216°
2026-04-15 13:59 -36.01769 -58.67011 28012 ft 502 kts 216°
2026-04-15 13:59 -36.04733 -58.69303 28346 ft 502 kts 216°
2026-04-15 13:59 -36.06697 -58.70822 28591 ft 502 kts 216°
2026-04-15 13:59 -36.10652 -58.73886 29091 ft 502 kts 217°
2026-04-15 14:00 -36.13611 -58.76180 29503 ft 500 kts 217°
2026-04-15 14:00 -36.16555 -58.78464 29918 ft 500 kts 217°
2026-04-15 14:00 -36.18505 -58.79978 30168 ft 500 kts 217°
2026-04-15 14:00 -36.21449 -58.82266 30503 ft 499 kts 217°
2026-04-15 14:01 -36.27303 -58.86821 31262 ft 495 kts 218°
2026-04-15 14:01 -36.30210 -58.89087 31658 ft 493 kts 218°
2026-04-15 14:01 -36.33119 -58.91355 32076 ft 491 kts 218°
2026-04-15 14:02 -36.36000 -58.93604 32492 ft 489 kts 218°
2026-04-15 14:02 -36.38877 -58.95852 32915 ft 487 kts 218°
2026-04-15 14:02 -36.41733 -58.98085 33380 ft 483 kts 219°
2026-04-15 14:02 -36.44570 -59.00306 33864 ft 480 kts 219°
2026-04-15 14:03 -36.47383 -59.02509 34265 ft 477 kts 219°
2026-04-15 14:03 -36.50191 -59.04710 34584 ft 478 kts 219°
2026-04-15 14:03 -36.53011 -59.06924 34859 ft 478 kts 219°
2026-04-15 14:03 -36.55819 -59.09130 35141 ft 478 kts 219°
2026-04-15 14:04 -36.58630 -59.11340 35424 ft 478 kts 220°
2026-04-15 14:04 -36.61434 -59.13545 35704 ft 477 kts 220°
2026-04-15 14:04 -36.64241 -59.15755 35978 ft 477 kts 220°
2026-04-15 14:04 -36.67019 -59.17943 36113 ft 478 kts 220°
2026-04-15 14:05 -36.69819 -59.20152 36087 ft 476 kts 220°
2026-04-15 14:05 -36.75421 -59.24577 36088 ft 475 kts 220°
2026-04-15 14:06 -36.80961 -59.28961 36086 ft 475 kts 220°
2026-04-15 14:06 -36.86546 -59.33388 36091 ft 477 kts 220°
2026-04-15 14:07 -36.92166 -59.37851 36090 ft 479 kts 220°
2026-04-15 14:07 -36.97782 -59.42318 36087 ft 478 kts 220°
2026-04-15 14:08 -37.03390 -59.46787 36083 ft 478 kts 220°
2026-04-15 14:08 -37.08972 -59.51242 36080 ft 479 kts 220°
2026-04-15 14:09 -37.14584 -59.55729 36093 ft 478 kts 220°
2026-04-15 14:09 -37.20131 -59.60322 36132 ft 477 kts 223°
2026-04-15 14:10 -37.25641 -59.64986 36100 ft 478 kts 222°
2026-04-15 14:10 -37.31165 -59.69659 36101 ft 478 kts 222°
2026-04-15 14:11 -37.36677 -59.74329 36101 ft 478 kts 222°
2026-04-15 14:11 -37.42194 -59.79012 36100 ft 478 kts 223°
2026-04-15 14:12 -37.47703 -59.83697 36118 ft 478 kts 223°
2026-04-15 14:12 -37.53170 -59.88355 36101 ft 476 kts 223°
2026-04-15 14:13 -37.58666 -59.93044 36105 ft 477 kts 223°
2026-04-15 14:13 -37.64172 -59.97753 36108 ft 478 kts 223°
2026-04-15 14:14 -37.69669 -60.02462 36111 ft 477 kts 223°
2026-04-15 14:14 -37.75171 -60.07183 36124 ft 477 kts 223°
2026-04-15 14:15 -37.80630 -60.11876 36109 ft 472 kts 223°
2026-04-15 14:15 -37.86035 -60.16531 36110 ft 473 kts 223°
2026-04-15 14:16 -37.91483 -60.21232 36119 ft 469 kts 223°
2026-04-15 14:16 -37.96842 -60.25865 36110 ft 469 kts 223°
2026-04-15 14:17 -38.02234 -60.30534 36120 ft 469 kts 223°
2026-04-15 14:17 -38.07605 -60.35193 36119 ft 466 kts 223°
2026-04-15 14:18 -38.12958 -60.39844 36110 ft 466 kts 223°
2026-04-15 14:18 -38.18360 -60.44448 36117 ft 467 kts 222°
2026-04-15 14:19 -38.23778 -60.49037 36122 ft 468 kts 222°
2026-04-15 14:19 -38.29189 -60.53633 36127 ft 468 kts 222°
2026-04-15 14:20 -38.34593 -60.58231 36120 ft 467 kts 222°
2026-04-15 14:20 -38.39998 -60.62838 36122 ft 467 kts 222°
2026-04-15 14:21 -38.45367 -60.67423 36117 ft 467 kts 222°
2026-04-15 14:21 -38.50764 -60.72039 36123 ft 467 kts 222°
2026-04-15 14:22 -38.56161 -60.76664 36153 ft 467 kts 222°
2026-04-15 14:22 -38.61550 -60.81293 36124 ft 466 kts 222°
2026-04-15 14:23 -38.66933 -60.85923 36124 ft 466 kts 222°
2026-04-15 14:23 -38.72309 -60.90557 36127 ft 466 kts 222°
2026-04-15 14:24 -38.77679 -60.95193 36127 ft 466 kts 222°
2026-04-15 14:24 -38.83058 -60.99845 36154 ft 465 kts 222°
2026-04-15 14:25 -38.88372 -61.04450 36141 ft 463 kts 221°
2026-04-15 14:25 -38.93722 -61.09096 36131 ft 464 kts 221°
2026-04-15 14:26 -38.99075 -61.13752 36130 ft 464 kts 221°
2026-04-15 14:26 -39.04420 -61.18410 36129 ft 464 kts 221°
2026-04-15 14:27 -39.09740 -61.23053 36143 ft 464 kts 221°
2026-04-15 14:27 -39.15078 -61.27723 36131 ft 463 kts 221°
2026-04-15 14:28 -39.20407 -61.32393 36123 ft 463 kts 221°
2026-04-15 14:28 -39.25745 -61.37080 36141 ft 465 kts 220°
2026-04-15 14:29 -39.31090 -61.41781 36133 ft 465 kts 220°
2026-04-15 14:29 -39.36436 -61.46491 36150 ft 464 kts 220°
2026-04-15 14:30 -39.41766 -61.51198 36132 ft 464 kts 220°
2026-04-15 14:30 -39.47092 -61.55910 36136 ft 464 kts 220°
2026-04-15 14:31 -39.52423 -61.60634 36134 ft 464 kts 220°
2026-04-15 14:31 -39.57747 -61.65362 36140 ft 464 kts 220°
2026-04-15 14:32 -39.63072 -61.70099 36143 ft 464 kts 220°
2026-04-15 14:32 -39.68397 -61.74845 36141 ft 464 kts 220°
2026-04-15 14:33 -39.73683 -61.79564 36140 ft 464 kts 220°
2026-04-15 14:33 -39.79004 -61.84322 36144 ft 464 kts 220°
2026-04-15 14:34 -39.84323 -61.89089 36143 ft 464 kts 220°
2026-04-15 14:34 -39.89384 -61.94206 36144 ft 459 kts 225°
2026-04-15 14:35 -39.94298 -61.99518 36151 ft 459 kts 224°
2026-04-15 14:35 -39.99235 -62.04804 36148 ft 459 kts 224°
2026-04-15 14:36 -40.04182 -62.10104 36148 ft 460 kts 224°
2026-04-15 14:36 -40.09124 -62.15409 36151 ft 460 kts 224°
2026-04-15 14:37 -40.14027 -62.20681 36152 ft 460 kts 224°
2026-04-15 14:37 -40.18971 -62.26009 36157 ft 460 kts 223°
2026-04-15 14:38 -40.23917 -62.31349 36159 ft 461 kts 223°
2026-04-15 14:38 -40.28855 -62.36691 36157 ft 461 kts 223°
2026-04-15 14:39 -40.33797 -62.42047 36154 ft 461 kts 223°
2026-04-15 14:39 -40.38737 -62.47412 36157 ft 461 kts 223°
2026-04-15 14:40 -40.43673 -62.52782 36182 ft 460 kts 223°
2026-04-15 14:40 -40.48586 -62.58140 36162 ft 458 kts 223°
2026-04-15 14:41 -40.53495 -62.63503 36162 ft 459 kts 223°
2026-04-15 14:41 -40.58371 -62.68841 36164 ft 459 kts 223°
2026-04-15 14:42 -40.63279 -62.74223 36163 ft 459 kts 223°
2026-04-15 14:42 -40.68180 -62.79609 36167 ft 459 kts 223°
2026-04-15 14:43 -40.73082 -62.85006 36174 ft 460 kts 222°
2026-04-15 14:43 -40.78001 -62.90433 36172 ft 461 kts 222°
2026-04-15 14:44 -40.82927 -62.95876 36157 ft 461 kts 223°
2026-04-15 14:44 -40.87967 -63.01115 36156 ft 463 kts 216°
2026-04-15 14:45 -40.93306 -63.05911 36154 ft 463 kts 217°
2026-04-15 14:45 -40.98597 -63.10784 36162 ft 464 kts 217°
2026-04-15 14:46 -41.03865 -63.15655 36168 ft 465 kts 217°
2026-04-15 14:46 -41.09174 -63.20577 36170 ft 465 kts 217°
2026-04-15 14:47 -41.14479 -63.25504 36179 ft 465 kts 217°
2026-04-15 14:47 -41.19780 -63.30438 36182 ft 465 kts 217°
2026-04-15 14:48 -41.25077 -63.35377 36179 ft 464 kts 217°
2026-04-15 14:48 -41.30328 -63.40283 36183 ft 464 kts 217°
2026-04-15 14:49 -41.35605 -63.45224 36192 ft 463 kts 217°
2026-04-15 14:49 -41.40866 -63.50160 36187 ft 462 kts 217°
2026-04-15 14:50 -41.45268 -63.54297 36183 ft 462 kts 217°
2026-04-15 14:50 -41.50468 -63.59194 36181 ft 459 kts 217°
2026-04-15 14:51 -41.55686 -63.64116 36189 ft 459 kts 217°
2026-04-15 14:51 -41.60905 -63.69051 36188 ft 459 kts 217°
2026-04-15 14:52 -41.66126 -63.73997 36191 ft 459 kts 217°
2026-04-15 14:52 -41.71333 -63.78940 36195 ft 457 kts 218°
2026-04-15 14:53 -41.76504 -63.83859 36191 ft 455 kts 218°
2026-04-15 14:53 -41.81636 -63.88750 36193 ft 455 kts 218°
2026-04-15 14:54 -41.86804 -63.93685 36195 ft 455 kts 218°
2026-04-15 14:54 -41.91964 -63.98624 36195 ft 455 kts 218°
2026-04-15 14:55 -41.97120 -64.03568 36193 ft 455 kts 218°
2026-04-15 14:55 -42.02233 -64.08480 36194 ft 453 kts 218°
2026-04-15 14:56 -42.07357 -64.13413 36196 ft 453 kts 218°
2026-04-15 14:56 -42.12480 -64.18356 36194 ft 453 kts 218°
2026-04-15 14:57 -42.17606 -64.23312 36204 ft 453 kts 219°
2026-04-15 14:57 -42.22730 -64.28275 36206 ft 452 kts 219°
2026-04-15 14:58 -42.27829 -64.33224 36196 ft 451 kts 219°
2026-04-15 14:58 -42.32924 -64.38180 36196 ft 451 kts 219°
2026-04-15 14:59 -42.38004 -64.43131 36203 ft 451 kts 219°
2026-04-15 14:59 -42.43090 -64.48098 36198 ft 451 kts 219°
2026-04-15 15:00 -42.48174 -64.53074 36198 ft 450 kts 220°
2026-04-15 15:00 -42.53238 -64.58039 36199 ft 449 kts 220°
2026-04-15 15:01 -42.58271 -64.62984 36212 ft 449 kts 220°
2026-04-15 15:01 -42.63332 -64.67968 36193 ft 449 kts 220°
2026-04-15 15:02 -42.68392 -64.72961 36204 ft 449 kts 220°
2026-04-15 15:02 -42.73444 -64.77955 36199 ft 448 kts 220°
2026-04-15 15:03 -42.78477 -64.82941 36206 ft 447 kts 220°
2026-04-15 15:03 -42.83474 -64.87902 36187 ft 447 kts 220°
2026-04-15 15:04 -42.88501 -64.92903 36194 ft 447 kts 220°
2026-04-15 15:04 -42.93550 -64.97936 36190 ft 448 kts 220°
2026-04-15 15:05 -42.98547 -65.02927 36196 ft 447 kts 221°
2026-04-15 15:05 -43.03540 -65.07922 36188 ft 446 kts 221°
2026-04-15 15:06 -43.11047 -65.15453 36163 ft 446 kts 221°
2026-04-15 15:06 -43.16052 -65.20485 36158 ft 446 kts 221°
2026-04-15 15:07 -43.21138 -65.25377 36150 ft 450 kts 214°
2026-04-15 15:07 -43.26563 -65.29681 36153 ft 450 kts 215°
2026-04-15 15:08 -43.31990 -65.33960 36161 ft 450 kts 215°
2026-04-15 15:08 -43.37415 -65.38242 36161 ft 450 kts 215°
2026-04-15 15:09 -43.42849 -65.42540 36169 ft 450 kts 215°
2026-04-15 15:09 -43.48242 -65.46814 36179 ft 450 kts 215°
2026-04-15 15:10 -43.53658 -65.51115 36174 ft 449 kts 215°
2026-04-15 15:10 -43.59076 -65.55428 36172 ft 449 kts 215°
2026-04-15 15:11 -43.64493 -65.59747 36182 ft 449 kts 215°
2026-04-15 15:11 -43.69901 -65.64069 36175 ft 449 kts 215°
2026-04-15 15:12 -43.75311 -65.68402 36160 ft 448 kts 216°
2026-04-15 15:12 -43.80705 -65.72732 36163 ft 448 kts 216°
2026-04-15 15:13 -43.86101 -65.77071 36157 ft 448 kts 216°
2026-04-15 15:13 -43.91474 -65.81401 36156 ft 448 kts 216°
2026-04-15 15:14 -43.96861 -65.85751 36161 ft 448 kts 216°
2026-04-15 15:14 -44.02238 -65.90106 36150 ft 447 kts 216°
2026-04-15 15:15 -44.07608 -65.94463 36145 ft 447 kts 216°
2026-04-15 15:15 -44.12980 -65.98833 36158 ft 447 kts 216°
2026-04-15 15:16 -44.18345 -66.03203 36133 ft 447 kts 216°
2026-04-15 15:16 -44.23709 -66.07584 36138 ft 447 kts 216°
2026-04-15 15:17 -44.29073 -66.11974 36125 ft 447 kts 216°
2026-04-15 15:17 -44.34434 -66.16370 36127 ft 447 kts 216°
2026-04-15 15:18 -44.39785 -66.20768 36127 ft 445 kts 216°
2026-04-15 15:18 -44.45129 -66.25171 36134 ft 445 kts 216°
2026-04-15 15:19 -44.50455 -66.29566 36116 ft 444 kts 217°
2026-04-15 15:19 -44.55780 -66.33971 36108 ft 444 kts 216°
2026-04-15 15:20 -44.61100 -66.38380 36119 ft 444 kts 216°
2026-04-15 15:20 -44.66381 -66.42768 36106 ft 444 kts 216°
2026-04-15 15:21 -44.71696 -66.47193 36111 ft 443 kts 217°
2026-04-15 15:21 -44.76983 -66.51604 36092 ft 442 kts 217°
2026-04-15 15:22 -44.82271 -66.56025 36089 ft 442 kts 217°
2026-04-15 15:22 -44.87570 -66.60465 36089 ft 444 kts 217°
2026-04-15 15:23 -44.92880 -66.64923 36087 ft 444 kts 217°
2026-04-15 15:23 -44.98176 -66.69379 36089 ft 442 kts 217°
2026-04-15 15:24 -45.03454 -66.73831 36082 ft 442 kts 217°
2026-04-15 15:24 -45.08729 -66.78289 36077 ft 442 kts 217°
2026-04-15 15:25 -45.13977 -66.82733 36071 ft 442 kts 217°
2026-04-15 15:25 -45.19249 -66.87207 36073 ft 442 kts 217°
2026-04-15 15:26 -45.24525 -66.91694 36077 ft 440 kts 217°
2026-04-15 15:26 -45.29775 -66.96169 36067 ft 441 kts 217°
2026-04-15 15:27 -45.35038 -67.00665 36058 ft 443 kts 217°
2026-04-15 15:27 -45.40329 -67.05195 36059 ft 444 kts 217°
2026-04-15 15:28 -45.45583 -67.09703 36086 ft 444 kts 217°
2026-04-15 15:28 -45.50896 -67.14271 36052 ft 443 kts 217°
2026-04-15 15:29 -45.56137 -67.18789 36042 ft 443 kts 217°
2026-04-15 15:29 -45.61419 -67.23350 36050 ft 444 kts 217°
2026-04-15 15:30 -45.66713 -67.27933 36043 ft 444 kts 217°
2026-04-15 15:30 -45.72012 -67.32530 36065 ft 444 kts 217°
2026-04-15 15:31 -45.77278 -67.37155 36021 ft 443 kts 219°
2026-04-15 15:31 -45.82424 -67.42026 36029 ft 443 kts 218°
2026-04-15 15:32 -45.87586 -67.46885 36021 ft 443 kts 218°
2026-04-15 15:32 -45.92735 -67.51738 36015 ft 443 kts 218°
2026-04-15 15:33 -45.97864 -67.56583 36035 ft 443 kts 218°
2026-04-15 15:33 -46.03018 -67.61463 36005 ft 442 kts 218°
2026-04-15 15:34 -46.08168 -67.66350 36011 ft 444 kts 218°
2026-04-15 15:34 -46.13327 -67.71257 36006 ft 445 kts 218°
2026-04-15 15:35 -46.17620 -67.75350 36002 ft 444 kts 218°
2026-04-15 15:35 -46.22778 -67.80276 36002 ft 444 kts 218°
2026-04-15 15:36 -46.27933 -67.85211 36005 ft 444 kts 218°
2026-04-15 15:36 -46.33084 -67.90153 35998 ft 446 kts 219°
2026-04-15 15:37 -46.38275 -67.95145 35994 ft 447 kts 219°
2026-04-15 15:37 -46.43449 -68.00133 35991 ft 447 kts 219°
2026-04-15 15:38 -46.48583 -68.05094 35990 ft 447 kts 219°
2026-04-15 15:38 -46.53759 -68.10106 35984 ft 446 kts 219°
2026-04-15 15:39 -46.58929 -68.15124 35984 ft 447 kts 219°
2026-04-15 15:39 -46.64110 -68.20166 35974 ft 448 kts 219°
2026-04-15 15:40 -46.69286 -68.25213 35968 ft 447 kts 219°
2026-04-15 15:40 -46.74458 -68.30269 35960 ft 447 kts 219°
2026-04-15 15:41 -46.79596 -68.35303 35977 ft 448 kts 219°
2026-04-15 15:41 -46.84773 -68.40388 35955 ft 448 kts 219°
2026-04-15 15:42 -46.89954 -68.45488 35944 ft 448 kts 220°
2026-04-15 15:42 -46.95127 -68.50593 35944 ft 448 kts 220°
2026-04-15 15:43 -47.00307 -68.55717 35937 ft 449 kts 220°
2026-04-15 15:43 -47.05437 -68.60803 35960 ft 448 kts 220°
2026-04-15 15:44 -47.10598 -68.65933 35920 ft 447 kts 220°
2026-04-15 15:44 -47.15750 -68.71065 35921 ft 448 kts 220°
2026-04-15 15:45 -47.20915 -68.76223 35917 ft 448 kts 220°
2026-04-15 15:45 -47.26069 -68.81381 35916 ft 448 kts 220°
2026-04-15 15:46 -47.31222 -68.86552 35910 ft 448 kts 220°
2026-04-15 15:46 -47.36374 -68.91734 35920 ft 446 kts 220°
2026-04-15 15:47 -47.41499 -68.96901 35894 ft 446 kts 220°
2026-04-15 15:47 -47.46588 -69.02044 35899 ft 446 kts 220°
2026-04-15 15:48 -47.51711 -69.07234 35901 ft 446 kts 220°
2026-04-15 15:48 -47.56832 -69.12435 35896 ft 446 kts 220°
2026-04-15 15:49 -47.61949 -69.17644 35912 ft 446 kts 221°
2026-04-15 15:49 -47.67041 -69.22839 35885 ft 444 kts 221°
2026-04-15 15:50 -47.72135 -69.28049 35888 ft 444 kts 221°
2026-04-15 15:50 -47.77221 -69.33265 35885 ft 444 kts 221°
2026-04-15 15:51 -47.82313 -69.38498 35880 ft 444 kts 221°
2026-04-15 15:51 -47.87392 -69.43732 35878 ft 444 kts 221°
2026-04-15 15:52 -47.92463 -69.48969 35862 ft 441 kts 222°
2026-04-15 15:52 -47.97505 -69.54189 35861 ft 442 kts 222°
2026-04-15 15:53 -48.02554 -69.59430 35850 ft 442 kts 222°
2026-04-15 15:53 -48.07590 -69.64669 35844 ft 441 kts 221°
2026-04-15 15:54 -48.12625 -69.69920 35839 ft 441 kts 221°
2026-04-15 15:54 -48.17622 -69.75145 35877 ft 441 kts 223°
2026-04-15 15:55 -48.22636 -69.80396 35827 ft 439 kts 223°
2026-04-15 15:55 -48.27661 -69.85673 35823 ft 440 kts 223°
2026-04-15 15:56 -48.32665 -69.90939 35830 ft 439 kts 223°
2026-04-15 15:56 -48.37663 -69.96212 35826 ft 439 kts 223°
2026-04-15 15:57 -48.42665 -70.01501 35823 ft 439 kts 223°
2026-04-15 15:57 -48.47649 -70.06743 35831 ft 438 kts 223°
2026-04-15 15:58 -48.52655 -70.11998 35811 ft 438 kts 223°
2026-04-15 15:58 -48.57672 -70.17276 35826 ft 441 kts 223°
2026-04-15 15:59 -48.62703 -70.22582 35797 ft 441 kts 223°
2026-04-15 15:59 -48.67736 -70.27903 35808 ft 441 kts 223°
2026-04-15 16:00 -48.72765 -70.33233 35838 ft 441 kts 223°
2026-04-15 16:00 -48.77761 -70.38540 35798 ft 437 kts 223°
2026-04-15 16:01 -48.82748 -70.43850 35778 ft 439 kts 223°
2026-04-15 16:01 -48.85247 -70.46515 35631 ft 437 kts 223°
2026-04-15 16:01 -48.87702 -70.49137 34880 ft 437 kts 223°
2026-04-15 16:02 -48.90194 -70.51801 34157 ft 438 kts 223°
2026-04-15 16:02 -48.92694 -70.54478 33368 ft 439 kts 223°
2026-04-15 16:02 -48.95198 -70.57161 32514 ft 441 kts 223°
2026-04-15 16:02 -48.97713 -70.59860 31706 ft 442 kts 223°
2026-04-15 16:03 -49.00224 -70.62559 30956 ft 443 kts 222°
2026-04-15 16:03 -49.02749 -70.65276 30088 ft 445 kts 223°
2026-04-15 16:03 -49.05335 -70.67943 28912 ft 455 kts 218°
2026-04-15 16:03 -49.08102 -70.70388 27573 ft 465 kts 217°
2026-04-15 16:04 -49.10919 -70.72921 26288 ft 473 kts 217°
2026-04-15 16:04 -49.13764 -70.75512 25047 ft 480 kts 217°
2026-04-15 16:04 -49.16634 -70.78144 24080 ft 481 kts 217°
2026-04-15 16:04 -49.19482 -70.80763 23416 ft 474 kts 217°
2026-04-15 16:05 -49.22290 -70.83352 22696 ft 467 kts 217°
2026-04-15 16:05 -49.25059 -70.85908 21948 ft 462 kts 217°
2026-04-15 16:05 -49.27794 -70.88436 21223 ft 457 kts 217°
2026-04-15 16:05 -49.30500 -70.90942 20531 ft 452 kts 218°
2026-04-15 16:06 -49.33178 -70.93423 19835 ft 447 kts 218°
2026-04-15 16:06 -49.35822 -70.95877 19167 ft 443 kts 218°
2026-04-15 16:06 -49.38448 -70.98316 18554 ft 438 kts 218°
2026-04-15 16:06 -49.41011 -71.00702 17958 ft 433 kts 219°
2026-04-15 16:07 -49.43575 -71.03090 17284 ft 428 kts 219°
2026-04-15 16:07 -49.46109 -71.05453 16630 ft 424 kts 219°
2026-04-15 16:07 -49.51104 -71.10119 15364 ft 415 kts 219°
2026-04-15 16:08 -49.53562 -71.12419 14751 ft 412 kts 219°
2026-04-15 16:08 -49.55997 -71.14702 14177 ft 407 kts 218°
2026-04-15 16:08 -49.58411 -71.16966 13610 ft 404 kts 218°
2026-04-15 16:08 -49.60798 -71.19209 13014 ft 399 kts 218°
2026-04-15 16:09 -49.63156 -71.21427 12491 ft 394 kts 218°
2026-04-15 16:09 -49.65435 -71.23571 12245 ft 383 kts 219°
2026-04-15 16:09 -49.67675 -71.25681 11971 ft 371 kts 220°
2026-04-15 16:09 -49.69843 -71.27727 11725 ft 362 kts 220°
2026-04-15 16:10 -49.71970 -71.29737 11459 ft 352 kts 220°
2026-04-15 16:10 -49.74030 -71.31685 11240 ft 343 kts 220°
2026-04-15 16:10 -49.76048 -71.33594 10991 ft 335 kts 220°
2026-04-15 16:10 -49.78008 -71.35451 10784 ft 327 kts 221°
2026-04-15 16:11 -49.79921 -71.37264 10558 ft 315 kts 221°
2026-04-15 16:11 -49.81738 -71.38982 10381 ft 295 kts 222°
2026-04-15 16:11 -49.83414 -71.40565 10368 ft 269 kts 223°
2026-04-15 16:11 -49.84940 -71.42010 10376 ft 247 kts 224°
2026-04-15 16:12 -49.86373 -71.43379 10362 ft 241 kts 225°
2026-04-15 16:12 -49.87854 -71.44809 10375 ft 259 kts 224°
2026-04-15 16:12 -49.89411 -71.46297 10319 ft 267 kts 223°
2026-04-15 16:12 -49.91008 -71.47816 9927 ft 268 kts 223°
2026-04-15 16:13 -49.92572 -71.49305 9580 ft 266 kts 223°
2026-04-15 16:13 -49.94145 -71.50807 9205 ft 265 kts 223°
2026-04-15 16:13 -49.95705 -71.52298 8843 ft 262 kts 223°
2026-04-15 16:13 -49.97248 -71.53774 8460 ft 260 kts 223°
2026-04-15 16:14 -49.98786 -71.55246 8093 ft 260 kts 222°
2026-04-15 16:14 -50.00327 -71.56722 7712 ft 259 kts 221°
2026-04-15 16:14 -50.01867 -71.58196 7317 ft 261 kts 221°
2026-04-15 16:14 -50.03417 -71.59684 6995 ft 262 kts 221°
2026-04-15 16:15 -50.04967 -71.61171 6604 ft 259 kts 220°
2026-04-15 16:15 -50.06487 -71.62634 6211 ft 255 kts 219°
2026-04-15 16:15 -50.07990 -71.64068 5805 ft 250 kts 220°
2026-04-15 16:15 -50.09455 -71.65482 5532 ft 245 kts 220°
2026-04-15 16:16 -50.10928 -71.66900 5507 ft 253 kts 219°
2026-04-15 16:16 -50.12402 -71.68316 5518 ft 245 kts 219°
2026-04-15 16:16 -50.13840 -71.69707 5507 ft 241 kts 220°
2026-04-15 16:16 -50.15264 -71.71087 5482 ft 240 kts 220°
2026-04-15 16:17 -50.16437 -71.72778 5431 ft 224 kts 248°
2026-04-15 16:17 -50.17032 -71.74968 5394 ft 219 kts 256°
2026-04-15 16:17 -50.17571 -71.77204 5331 ft 220 kts 256°
2026-04-15 16:17 -50.18093 -71.79453 5261 ft 221 kts 257°
2026-04-15 16:18 -50.18604 -71.81709 5198 ft 221 kts 257°
2026-04-15 16:18 -50.19109 -71.83966 5138 ft 220 kts 258°
2026-04-15 16:18 -50.19608 -71.86225 5083 ft 220 kts 258°
2026-04-15 16:18 -50.20104 -71.88486 5031 ft 219 kts 258°
2026-04-15 16:19 -50.20594 -71.90739 4963 ft 220 kts 258°
2026-04-15 16:19 -50.21086 -71.93009 4904 ft 221 kts 258°
2026-04-15 16:19 -50.21577 -71.95276 4855 ft 220 kts 258°
2026-04-15 16:19 -50.22064 -71.97537 4783 ft 220 kts 259°
2026-04-15 16:20 -50.22546 -71.99773 4732 ft 220 kts 259°
2026-04-15 16:20 -50.23035 -72.02040 4668 ft 220 kts 259°
2026-04-15 16:20 -50.23523 -72.04308 4611 ft 221 kts 259°
2026-04-15 16:20 -50.24013 -72.06592 4556 ft 222 kts 259°
2026-04-15 16:21 -50.24504 -72.08877 4490 ft 220 kts 259°
2026-04-15 16:21 -50.24990 -72.11144 4427 ft 220 kts 259°
2026-04-15 16:21 -50.25312 -72.12651 4360 ft 221 kts 259°
2026-04-15 16:21 -50.25797 -72.14918 4255 ft 217 kts 259°
2026-04-15 16:22 -50.26264 -72.17102 4162 ft 207 kts 259°
2026-04-15 16:22 -50.26711 -72.19197 4080 ft 200 kts 260°
2026-04-15 16:22 -50.27155 -72.21285 3984 ft 204 kts 260°
2026-04-15 16:22 -50.27609 -72.23414 3873 ft 207 kts 260°
2026-04-15 16:23 -50.28320 -72.25409 3710 ft 218 kts 233°
2026-04-15 16:23 -50.29632 -72.26671 3420 ft 228 kts 203°
2026-04-15 16:23 -50.31215 -72.26780 3086 ft 231 kts 172°
2026-04-15 16:23 -50.32614 -72.25674 2861 ft 223 kts 137°
2026-04-15 16:24 -50.33421 -72.23739 2658 ft 206 kts 99°
2026-04-15 16:24 -50.33442 -72.21617 2485 ft 190 kts 63°
2026-04-15 16:24 -50.32770 -72.20024 2364 ft 167 kts 32°
2026-04-15 16:24 -50.31900 -72.18858 2154 ft 164 kts 35°
2026-04-15 16:25 -50.31059 -72.17685 1937 ft 162 kts 32°
2026-04-15 16:25 -50.30324 -72.16462 1817 ft 150 kts 39°
2026-04-15 16:25 -50.29675 -72.15278 1719 ft 136 kts 32°
2026-04-15 16:25 -50.28996 -72.14275 1524 ft 136 kts 40°
2026-04-15 16:26 -50.28494 -72.12976 1376 ft 148 kts 58°
2026-04-15 16:26 -50.28329 -72.11329 1254 ft 156 kts 78°
2026-04-15 16:26 -50.28289 -72.09648 1020 ft 152 kts 78°
2026-04-15 16:26 -50.28188 -72.08012 802 ft 151 kts 78°
2026-04-15 16:27 -50.28092 -72.06438 648 ft 135 kts 77°
2026-04-15 16:27 -50.28016 -72.05406 645 ft 62 kts 87°
2026-04-15 16:27 -50.27986 -72.04790 647 ft 49 kts 84°
2026-04-15 16:27 -50.27958 -72.04304 644 ft 36 kts 84°
2026-04-15 16:28 -50.27936 -72.03932 642 ft 30 kts 86°
2026-04-15 16:28 -50.27942 -72.03726 645 ft 11 kts 121°
2026-04-15 16:28 -50.27965 -72.03614 644 ft 10 kts 85°
2026-04-15 16:28 -50.27950 -72.03573 645 ft 2 kts 23°
2026-04-15 16:29 -50.27921 -72.03587 645 ft 8 kts 310°
2026-04-15 16:29 -50.27922 -72.03684 646 ft 15 kts 264°
2026-04-15 16:29 -50.27934 -72.03906 642 ft 24 kts 265°
2026-04-15 16:29 -50.27950 -72.04168 644 ft 24 kts 265°
2026-04-15 16:30 -50.27966 -72.04423 645 ft 23 kts 263°
2026-04-15 16:30 -50.27980 -72.04659 646 ft 21 kts 263°
2026-04-15 16:30 -50.27994 -72.04883 647 ft 21 kts 265°
2026-04-15 16:30 -50.28006 -72.05092 645 ft 16 kts 264°
2026-04-15 16:31 -50.28017 -72.05273 645 ft 17 kts 265°
2026-04-15 16:31 -50.28036 -72.05395 647 ft 7 kts 224°
2026-04-15 16:31 -50.28081 -72.05416 644 ft 8 kts 176°
2026-04-15 16:31 -50.28140 -72.05410 644 ft 10 kts 176°
2026-04-15 16:32 -50.28211 -72.05402 644 ft 10 kts 175°
2026-04-15 16:32 -50.28266 -72.05395 644 ft 8 kts 175°
2026-04-15 16:32 -50.28310 -72.05389 644 ft 3 kts 175°
2026-04-15 16:32 -50.28324 -72.05387 644 ft 1 kts 175°
2026-04-15 16:33 -50.28333 -72.05386 644 ft 2 kts 175°
2026-04-15 16:33 -50.28338 -72.05385 644 ft 0 kts 175°